Lid_Strength_Index
4 6 7 6 8 9 9 11 9 7 5 7 7 8 7 6 5 5 5 4 4 4 2 2 2 1 1 1 1 0 0 0 0 1 1 1 1 0 -0 -0 -1 -1 -2 -2
6 7 5 5 6 8 8 8 9 7 5 6 8 8 7 6 6 5 5 5 4 4 3 3 2 1 1 1 1 1 0 0 -0 0 0 0 0 1 1 -0 -1 -2 -2 -2
7 6 5 5 6 7 7 7 9 9 6 5 6 9 8 9 5 5 4 4 4 4 4 3 2 2 1 2 1 1 0 0 0 -0 -0 -0 -0 -0 1 1 0 -0 -1 -2
6 5 5 6 6 6 8 6 6 7 8 9 6 13 10 8 7 6 5 4 4 4 3 3 3 2 2 1 1 1 1 1 0 -0 0 1 1 2 1 0 0 0 -1 -1
7 6 6 7 6 5 7 5 6 6 7 8 8 10 10 8 9 7 6 5 4 3 3 3 3 2 2 1 1 1 1 1 0 0 0 1 1 1 0 0 0 0 -0 -1
6 4 5 5 5 5 5 6 6 6 7 10 8 9 12 11 10 9 6 5 4 4 3 3 2 2 2 1 1 1 1 1 0 0 0 1 1 1 1 0 1 1 0 0
6 6 5 5 6 5 6 7 10 11 11 11 8 11 11 9 8 7 7 5 4 3 3 3 3 2 2 2 1 1 1 2 1 1 1 1 1 1 0 -0 0 1 1 1
9 9 6 5 6 7 7 7 10 13 12 11 8 15 11 7 6 6 5 4 4 4 3 3 3 2 2 2 1 1 2 2 1 1 1 0 0 1 1 0 0 0 1 1
8 9 5 5 5 5 7 8 6 9 9 10 10 9 7 6 6 5 4 4 4 4 3 3 2 2 2 2 1 1 2 2 1 1 1 1 1 1 1 0 0 0 -0 0
6 9 6 6 5 5 6 6 9 8 12 12 11 10 10 9 7 5 5 5 4 3 3 3 3 2 2 1 1 1 1 2 1 1 1 1 1 0 0 -0 0 -0 -0 -0
6 7 7 6 7 7 7 8 7 7 9 11 12 10 6 6 5 5 5 4 4 3 3 3 2 2 2 1 1 1 1 1 1 1 1 1 1 1 0 0 -0 -0 -1 -1
5 7 9 8 6 5 6 7 7 9 10 9 9 10 5 5 5 4 4 4 3 3 3 3 2 2 2 2 2 2 1 1 1 1 1 1 1 1 1 1 0 -0 0 -0
5 7 10 9 7 6 7 6 7 7 7 9 10 9 5 5 4 4 4 4 3 3 3 3 2 2 2 2 2 2 1 1 1 1 1 1 1 0 0 0 0 -0 0 0
4 7 8 10 8 7 8 7 7 7 9 9 9 8 7 5 5 5 5 4 4 3 2 2 3 3 2 2 2 2 1 1 1 1 1 1 1 1 0 0 0 -0 -0 -0
5 8 7 7 7 7 7 7 7 8 7 9 8 8 8 6 6 5 4 4 4 4 3 3 3 3 3 3 2 2 1 1 1 1 1 1 0 0 0 0 -1 -0 -0 -0
5 7 7 8 7 7 8 7 7 7 7 7 7 7 6 6 5 5 5 5 4 4 3 3 3 3 3 3 2 2 2 1 1 1 1 1 -0 0 0 0 0 0 0 0
6 7 8 9 7 7 9 7 7 7 6 6 8 6 5 6 6 5 5 5 4 4 4 4 3 3 3 2 2 2 2 1 1 1 1 1 1 1 1 0 0 1 1 0
6 7 7 9 8 11 7 5 5 6 6 5 5 5 5 5 4 4 4 4 4 4 4 3 3 3 2 2 2 2 1 1 1 1 1 1 1 1 1 1 0 -0 0 1
5 6 8 9 10 8 7 6 6 7 7 5 5 5 5 4 4 5 3 3 3 3 3 3 2 2 2 2 2 2 2 2 2 2 1 1 1 1 1 0 -0 -1 0 0
5 5 7 8 10 12 8 6 4 4 8 5 5 5 7 6 7 6 3 3 3 3 3 2 2 2 2 2 1 2 2 2 2 2 1 0 -0 -0 -0 -1 -1 -1 -0 1
7 7 8 8 9 8 6 7 5 9 9 5 5 4 4 6 7 7 5 4 3 2 2 2 2 2 2 1 1 2 2 2 1 1 0 -0 -1 -1 -1 -1 -1 -0 0 1
9 8 8 8 9 12 5 7 10 6 5 4 4 4 4 5 5 5 7 5 3 3 2 2 2 2 2 1 1 2 2 1 1 1 1 -0 -1 -0 0 -1 -0 0 1 1
10 7 7 7 8 5 4 5 3 3 4 4 4 4 3 6 6 5 7 4 3 3 2 2 2 2 2 1 1 2 2 1 1 1 1 -0 -1 -1 -0 0 1 2 1 2
7 6 9 6 7 5 5 4 3 3 4 3 3 3 3 4 4 4 3 3 3 2 2 2 2 2 2 1 1 1 1 1 1 1 1 -0 1 1 1 1 1 1 1 2
8 8 8 8 8 6 4 4 3 3 3 3 3 3 3 3 3 3 3 3 3 2 2 2 3 2 2 2 1 1 1 1 1 1 1 1 1 1 1 1 1 1 0 1
8 10 9 8 7 6 5 3 3 3 3 3 3 3 3 3 3 3 3 3 2 2 1 2 3 3 2 2 2 1 0 -0 0 1 1 1 1 1 1 1 1 4 5 6